Starlink 3096

operational
NORAD ID: 49131 Int'l Des: 2021-082 Owner: SPXS Country: US Constellation: starlink
LEOCIRCULAR

关于 Starlink 3096

正在加载描述...

实时位置

正在加载3D地球...

即将过境

高度历史

Altitude vs Time

uPlot chart will show altitude changes over time

两行轨道根数

1 49131U 21082B 25304.51211566 -.00002903 00000-0 -23575-3 0 9993
2 49131 69.9994 220.1459 0002845 265.6830 94.4004 14.98310570227615
Epoch: Oct 31, 2025 • Age: 12 hours

当前状态

高度 583.2 km
速度 7.57 km/s
星下点 58.43°N, 142.42°W
发射日期 Sep 14, 2021
运行时间 4.1 years
类型 internet

技术详情

分类 Payload
质量 297.00 kg
干质量 275.00 kg
总质量 297.00 kg
长度 0.20 m
直径 2.80 m
跨度 9.00 m
形状 Box + pan
制造商 SPXS
平台类型 Starlink
阶段状态 In Orbit
所有者/国家 SPXS/US

大型星座

Loading constellations...